Location: Unspecified
(0.0000°N, 0.0000°E)
Time: 00:31:33

N. Korean satellite - Pass Details

Date: 09 March 2018
Orbit: 460 x 512 km, 97.2° (Epoch: 21 March)

Event Time Altitude Azimuth Distance (km) Brightness Sun altitude
Rises 05:24:37 0° 45° (NE) 2,603 10.9 -11.5°
Reaches altitude 10° 05:27:45 10° 74° (ENE) 1,715 10.6 -10.7°
Maximum altitude 05:29:24 13° 101° (E) 1,552 10.6 -10.3°
Drops below altitude 10° 05:31:03 10° 128° (SE) 1,709 10.3 -9.9°
Sets 05:34:08 0° 157° (SSE) 2,585 10.6 -9.1°
